TimeCDT,TemperatureF,Dew PointF,Humidity,Sea Level PressureIn,VisibilityMPH,Wind Direction,Wind SpeedMPH,Gust SpeedMPH,PrecipitationIn,Events,Conditions,WindDirDegrees,DateUTC
12:53 AM,42.1,37.9,85,30.12,10.0,Calm,Calm,-,N/A,,Clear,0,2011-11-05 05:53:00
1:53 AM,43.0,39.0,86,30.11,10.0,Calm,Calm,-,N/A,,Clear,0,2011-11-05 06:53:00
2:53 AM,44.1,39.9,85,30.10,10.0,East,3.5,-,N/A,,Clear,80,2011-11-05 07:53:00
3:53 AM,41.0,37.9,89,30.11,10.0,Calm,Calm,-,N/A,,Clear,0,2011-11-05 08:53:00
4:53 AM,39.0,37.0,93,30.11,9.0,East,3.5,-,N/A,,Clear,80,2011-11-05 09:53:00
5:53 AM,39.0,37.0,93,30.12,10.0,Calm,Calm,-,N/A,,Clear,0,2011-11-05 10:53:00
6:53 AM,39.9,37.0,89,30.13,8.0,Calm,Calm,-,N/A,,Clear,0,2011-11-05 11:53:00
7:53 AM,39.0,36.0,89,30.13,10.0,SE,3.5,-,N/A,,Clear,130,2011-11-05 12:53:00
8:53 AM,46.9,44.1,90,30.14,10.0,ESE,8.1,-,N/A,,Clear,110,2011-11-05 13:53:00
9:53 AM,51.1,46.0,83,30.14,10.0,ESE,11.5,-,N/A,,Clear,110,2011-11-05 14:53:00
11:53 AM,63.0,46.0,54,30.11,10.0,ESE,8.1,-,N/A,,Clear,120,2011-11-05 16:53:00
12:53 PM,66.0,46.0,48,30.09,10.0,ESE,9.2,16.1,N/A,,Clear,120,2011-11-05 17:53:00
1:53 PM,69.1,46.0,44,30.04,10.0,ESE,12.7,18.4,N/A,,Clear,110,2011-11-05 18:53:00
2:53 PM,71.6,46.4,41,30.00,10.0,SE,13.8,23.0,N/A,,Clear,130,2011-11-05 19:53:00
3:53 PM,72.0,46.0,40,29.98,10.0,ESE,13.8,-,N/A,,Clear,120,2011-11-05 20:53:00
4:53 PM,71.1,48.0,44,29.96,10.0,SSE,13.8,-,N/A,,Clear,160,2011-11-05 21:53:00
5:53 PM,69.1,48.9,49,29.96,10.0,SSE,13.8,19.6,N/A,,Clear,150,2011-11-05 22:53:00
6:53 PM,66.0,50.0,56,29.98,10.0,SSE,8.1,-,N/A,,Clear,160,2011-11-05 23:53:00
7:53 PM,64.0,51.1,63,29.98,10.0,SSE,6.9,-,N/A,,Clear,150,2011-11-06 00:53:00
8:53 PM,62.1,52.0,70,29.99,10.0,SE,9.2,-,N/A,,Clear,140,2011-11-06 01:53:00
9:53 PM,63.0,53.1,70,29.99,10.0,SE,9.2,-,N/A,,Overcast,140,2011-11-06 02:53:00
10:53 PM,64.4,53.6,68,30.00,10.0,SE,12.7,-,N/A,,Overcast,140,2011-11-06 03:53:00
11:53 PM,64.0,55.0,73,30.00,10.0,SSE,11.5,-,N/A,,Overcast,150,2011-11-06 04:53:00